Wind_Speed
31 31 32 32 31 32 33 33 33 33 31 31 30 31 30 30 30 28 27 26 23 21 21 20 19 17 16 17 17 17 16 15 14 13 12 12 11 11 10 9 9 8 7
34 34 34 35 35 35 35 37 37 38 38 36 34 35 34 32 32 33 31 28 27 26 24 24 22 21 19 18 19 19 18 19 17 16 16 15 14 13 12 12 11 12 11
39 39 39 37 37 39 41 41 40 40 41 42 42 40 36 37 38 33 32 33 32 30 29 27 26 24 22 22 21 21 20 19 20 20 19 19 18 17 15 14 14 15 14
39 40 40 39 39 39 40 42 44 45 44 44 44 44 44 42 40 41 41 36 34 33 33 30 28 28 27 25 24 23 21 17 19 24 25 22 21 21 19 17 16 16 17
37 39 39 38 38 39 40 41 43 45 47 47 48 48 48 49 48 42 42 42 39 38 39 37 31 30 28 27 26 24 25 28 26 31 26 24 23 24 23 20 19 19 18
35 36 36 37 37 38 39 41 44 45 46 46 49 51 50 49 50 52 48 43 43 40 40 37 38 33 30 27 26 24 24 27 31 28 29 29 22 24 23 23 20 20 19
32 32 33 33 36 37 36 35 36 39 41 43 48 50 51 49 50 50 50 47 42 37 44 35 39 38 36 31 29 28 28 28 30 28 30 33 36 31 23 24 22 22 20
30 28 27 26 27 28 29 30 31 31 31 32 37 43 46 46 46 46 47 45 44 42 37 37 40 36 33 30 30 29 29 29 29 27 24 27 24 31 28 30 28 26 24
13 14 16 19 20 21 23 24 26 29 32 30 31 35 37 39 37 36 37 41 42 42 37 36 34 34 29 30 31 32 30 29 31 28 28 28 25 25 27 39 35 28 29
9 10 11 13 15 18 19 20 22 24 27 29 29 29 28 32 32 36 32 20 21 27 27 27 30 32 32 31 26 22 24 26 26 28 30 28 32 34 27 27 32 33 32
5 7 9 11 13 16 17 19 21 24 26 29 30 29 25 27 30 33 32 29 30 24 20 19 22 24 23 23 24 26 27 30 33 30 28 29 26 32 31 32 32 33 32
5 6 9 10 12 14 18 20 22 23 24 25 25 25 26 27 31 31 29 27 27 30 33 33 32 31 30 30 30 29 29 28 28 30 31 31 33 36 37 38 40 41 39
7 10 10 10 13 15 18 20 21 22 22 20 21 18 15 19 22 23 23 26 26 24 28 30 31 33 33 32 30 30 27 30 31 32 31 34 35 35 35 39 43 44 42
10 11 11 14 16 16 18 19 21 21 20 17 15 12 11 13 15 20 21 24 23 23 22 24 25 28 31 34 34 36 36 36 34 36 36 39 40 43 46 47 48 48 48
10 12 14 17 18 18 18 18 20 20 21 16 12 10 8 10 10 11 18 22 21 21 19 19 23 25 28 30 32 34 37 39 41 42 42 45 46 47 48 48 49 50 51
11 13 17 18 18 19 19 18 17 18 19 19 15 10 8 5 3 8 12 16 17 17 18 15 16 19 21 24 28 30 32 32 33 35 36 37 38 38 39 39 40 41 43
12 15 16 17 18 18 19 19 18 16 16 16 16 14 9 7 5 3 8 11 12 15 16 15 16 19 21 24 25 28 29 30 32 34 36 37 37 37 39 39 40 41 42
13 15 16 18 18 17 17 17 18 17 16 15 14 13 13 11 6 3 4 8 11 15 16 16 16 18 19 21 23 24 26 29 31 33 35 36 36 38 38 37 38 40 41
14 15 15 17 17 17 18 18 17 17 16 15 14 13 12 10 9 9 10 11 12 14 17 17 17 19 20 23 24 25 27 28 31 32 32 31 31 32 33 34 35 36 40
14 15 16 17 17 18 17 17 17 17 17 16 15 14 13 12 11 12 12 12 14 15 17 19 20 20 21 21 23 23 23 24 26 27 28 29 30 32 32 32 35 36 36
16 17 17 18 17 18 18 18 18 17 17 16 16 15 14 13 13 14 15 16 16 17 18 19 20 22 23 24 23 23 24 24 26 28 29 29 31 32 32 34 34 33 34
18 18 19 19 19 20 18 18 18 18 17 17 16 16 16 15 15 14 14 14 16 17 19 20 20 21 21 22 23 24 24 24 25 24 26 27 28 29 30 31 32 32 33
21 21 21 22 22 22 21 20 20 20 20 20 19 19 19 18 18 18 18 17 18 19 20 22 22 22 22 22 22 23 23 23 23 22 24 22 25 27 27 27 29 30 32
23 23 25 26 25 25 24 23 22 22 22 22 21 22 22 22 22 22 21 21 22 22 23 23 24 24 24 25 25 25 24 24 25 24 26 24 25 26 28 29 31 32 33
26 26 26 28 28 28 27 26 25 25 25 25 25 24 24 24 24 24 24 25 25 25 25 25 24 24 24 25 26 26 25 25 27 28 27 29 29 27 28 30 31 32 33
29 29 29 30 30 29 30 28 28 27 26 26 26 26 26 27 27 26 25 26 26 26 27 26 26 26 26 25 25 26 26 26 28 29 29 30 31 31 30 28 30 30 31
Wind_Direction
288 288 286 283 280 279 279 277 275 273 271 269 273 273 271 268 267 266 268 270 270 268 272 274 276 274 275 278 278 277 277 276 274 276 278 279 283 285 282 281 283 286 285
287 285 284 284 283 280 276 274 271 269 268 267 266 267 270 275 271 268 264 264 268 267 264 266 270 274 275 274 277 276 275 275 274 273 273 274 274 276 278 276 274 278 279
287 284 282 279 279 278 278 276 273 270 268 265 261 261 262 263 264 266 268 266 265 263 262 260 263 267 272 278 279 278 277 278 283 280 274 274 272 270 270 272 273 278 276
284 283 282 281 279 278 276 275 275 274 271 268 265 260 257 258 260 261 261 264 266 264 260 259 259 262 266 272 279 281 280 277 285 290 282 275 274 272 268 267 270 273 279
282 283 283 284 284 283 281 279 277 275 273 270 266 263 259 256 254 258 254 257 259 260 262 263 257 259 264 268 273 276 274 274 289 262 277 280 278 276 274 271 269 270 273
285 286 288 286 285 285 285 284 282 280 277 275 272 267 260 256 253 252 254 255 252 253 253 261 267 259 261 266 271 275 271 271 278 273 262 263 272 277 275 275 272 268 268
290 286 286 289 290 293 294 292 288 284 281 276 272 270 268 262 256 252 249 249 252 258 252 256 259 262 267 265 264 267 269 272 270 267 257 264 256 259 268 272 269 268 269
288 288 291 295 297 300 300 299 298 295 292 286 280 278 274 264 261 257 254 251 246 245 255 256 254 258 258 262 266 269 270 269 260 267 267 262 265 255 254 263 267 264 261
299 300 305 307 302 305 307 302 300 299 295 291 285 281 280 276 270 263 257 251 250 248 252 255 253 256 260 264 267 270 267 264 260 268 260 260 267 253 279 257 263 262 270
334 323 313 316 324 325 322 318 315 311 306 301 289 278 276 277 272 268 246 233 241 245 248 253 254 254 256 255 254 260 260 258 260 262 257 263 268 260 251 259 268 271 272
344 350 339 341 340 335 335 331 330 327 319 310 301 288 269 267 269 262 266 238 235 225 221 220 226 227 231 244 255 262 263 264 263 262 257 262 264 268 268 266 267 270 268
11 9 5 353 340 342 346 343 337 331 326 316 305 291 270 261 262 256 252 256 236 232 241 241 243 241 246 254 256 264 261 261 260 260 263 265 263 261 261 265 265 265 268
14 13 356 351 354 358 351 346 339 336 334 327 317 309 291 273 265 255 243 253 248 237 237 243 249 255 255 255 255 255 254 255 258 261 263 267 267 266 266 267 268 267 263
14 360 351 356 2 2 355 349 346 343 343 346 342 321 298 284 271 254 242 257 255 255 247 250 248 250 254 257 258 258 260 261 257 254 259 262 265 268 270 271 271 270 269
360 350 356 4 2 1 356 350 349 349 347 354 358 346 310 288 285 246 245 260 263 267 260 255 256 255 255 256 257 259 261 263 262 266 266 267 268 270 273 273 273 273 272
346 350 2 1 0 1 355 353 352 352 352 351 357 8 357 328 258 239 250 261 267 276 278 271 267 265 265 267 265 266 269 270 271 270 269 269 269 272 275 275 275 275 274
341 352 357 355 358 359 356 351 350 352 352 354 351 350 4 0 341 270 240 243 244 245 263 267 269 267 266 262 261 265 269 271 272 273 274 276 277 278 278 279 279 278 277
340 346 349 349 352 352 351 348 351 351 350 350 350 350 349 340 332 315 272 262 257 259 259 259 256 257 258 260 259 260 264 269 271 273 274 278 280 280 281 281 281 281 281
333 336 340 342 342 342 344 344 347 347 347 346 341 338 335 332 326 316 302 292 284 279 281 279 272 269 268 270 273 276 275 275 275 275 275 278 278 281 284 284 282 283 284
321 325 332 332 334 332 333 334 339 341 343 342 338 334 330 323 309 297 288 282 281 281 281 284 287 286 284 280 282 280 278 277 277 279 280 281 283 284 286 286 285 285 288
313 317 322 324 323 321 322 325 329 331 333 333 332 328 327 320 314 309 300 293 289 284 282 284 286 285 283 283 281 280 279 276 275 277 278 279 283 283 283 287 288 289 285
306 309 313 314 313 311 311 313 316 317 317 316 317 316 317 312 309 307 304 299 295 291 290 288 289 287 283 281 281 282 282 282 280 281 280 281 284 286 288 289 290 291 291
299 303 304 305 305 305 306 307 307 307 308 309 309 307 305 304 303 301 300 299 294 292 292 295 297 296 293 289 286 288 290 290 289 290 288 289 289 290 289 290 292 292 292
294 297 299 300 302 303 304 303 301 301 302 301 301 301 301 300 299 299 298 296 293 293 292 293 292 291 291 291 292 293 295 298 299 300 297 297 293 293 294 295 295 295 294
290 292 294 296 298 299 300 301 300 298 297 298 300 299 298 296 295 295 295 294 293 291 291 289 289 291 292 293 295 296 298 300 301 301 301 300 298 298 297 298 297 296 294
288 289 291 292 292 293 295 297 297 296 295 295 296 298 296 294 293 293 293 293 292 292 291 291 291 290 291 294 295 296 298 299 299 300 301 300 301 301 300 299 297 296 295
Height
3159 3157 3156 3156 3155 3154 3152 3152 3151 3151 3150 3150 3150 3150 3150 3150 3151 3150 3150 3149 3149 3149 3149 3149 3148 3149 3149 3149 3149 3149 3149 3149 3148 3148 3148 3148 3148 3147 3147 3146 3146 3145 3144
3152 3150 3149 3147 3147 3146 3145 3143 3142 3141 3140 3141 3141 3142 3142 3142 3142 3142 3143 3143 3143 3143 3144 3144 3144 3144 3144 3145 3145 3145 3144 3145 3144 3145 3145 3144 3144 3144 3144 3144 3143 3143 3142
3143 3140 3139 3139 3138 3136 3134 3133 3133 3132 3131 3131 3130 3132 3133 3134 3134 3134 3134 3134 3135 3136 3137 3137 3138 3138 3139 3140 3140 3141 3141 3141 3141 3141 3141 3141 3140 3140 3140 3140 3140 3140 3140
3133 3130 3128 3128 3127 3126 3125 3123 3121 3121 3121 3121 3121 3122 3122 3123 3124 3125 3126 3126 3126 3127 3128 3130 3131 3132 3133 3134 3135 3136 3136 3136 3136 3138 3138 3137 3136 3136 3136 3135 3136 3136 3137
3125 3122 3120 3119 3118 3116 3115 3113 3111 3109 3108 3108 3107 3108 3110 3111 3113 3113 3115 3117 3118 3119 3120 3122 3124 3125 3127 3128 3129 3130 3130 3130 3130 3128 3131 3131 3132 3132 3132 3131 3131 3131 3131
3117 3115 3113 3110 3108 3106 3105 3103 3100 3098 3096 3096 3094 3094 3095 3097 3099 3101 3104 3106 3108 3109 3113 3113 3115 3117 3120 3122 3122 3123 3123 3122 3123 3122 3123 3124 3124 3126 3126 3127 3126 3126 3125
3109 3106 3104 3103 3100 3097 3094 3092 3088 3085 3083 3083 3079 3079 3080 3083 3085 3086 3090 3095 3098 3100 3102 3104 3107 3109 3111 3113 3115 3115 3116 3116 3115 3115 3115 3115 3116 3118 3118 3120 3119 3120 3120
3100 3098 3097 3095 3093 3090 3086 3082 3078 3075 3073 3072 3069 3067 3065 3070 3071 3075 3078 3082 3086 3091 3092 3094 3097 3099 3102 3104 3106 3107 3107 3108 3108 3109 3108 3108 3106 3107 3110 3112 3112 3113 3112
3094 3093 3092 3089 3087 3083 3079 3076 3072 3069 3065 3064 3061 3058 3056 3055 3058 3063 3067 3070 3074 3078 3083 3086 3088 3090 3092 3095 3096 3098 3099 3100 3101 3101 3101 3102 3101 3100 3102 3103 3105 3105 3105
3090 3089 3088 3085 3081 3077 3074 3070 3066 3062 3058 3054 3053 3051 3049 3048 3048 3049 3057 3061 3065 3070 3074 3077 3079 3082 3085 3087 3089 3090 3091 3092 3093 3093 3093 3094 3093 3092 3093 3095 3096 3095 3096
3088 3086 3084 3081 3077 3073 3069 3064 3059 3054 3050 3046 3043 3041 3041 3041 3042 3043 3044 3053 3057 3060 3063 3067 3070 3073 3076 3079 3081 3083 3084 3085 3085 3085 3086 3087 3087 3087 3088 3088 3087 3087 3088
3086 3083 3080 3077 3073 3068 3062 3058 3053 3049 3045 3041 3037 3033 3032 3034 3036 3036 3039 3043 3048 3052 3054 3058 3062 3066 3069 3071 3073 3074 3075 3076 3077 3076 3078 3078 3079 3079 3079 3078 3079 3078 3078
3083 3080 3078 3074 3070 3064 3059 3055 3051 3046 3040 3035 3032 3028 3027 3027 3029 3031 3033 3038 3040 3045 3048 3051 3055 3057 3059 3061 3063 3064 3066 3067 3069 3069 3070 3069 3069 3068 3068 3068 3068 3068 3068
3081 3079 3076 3072 3066 3061 3057 3053 3049 3044 3038 3032 3028 3026 3025 3025 3025 3027 3030 3034 3036 3040 3042 3045 3048 3050 3051 3052 3054 3056 3058 3058 3059 3060 3060 3060 3060 3059 3058 3057 3057 3057 3056
3080 3078 3074 3067 3064 3060 3056 3052 3048 3043 3038 3032 3026 3024 3023 3023 3023 3025 3028 3029 3031 3034 3037 3040 3041 3042 3043 3045 3045 3046 3047 3048 3048 3050 3050 3049 3047 3047 3047 3046 3045 3045 3045
3079 3075 3069 3066 3062 3058 3056 3052 3047 3043 3038 3034 3029 3024 3022 3021 3020 3022 3025 3027 3029 3030 3031 3034 3037 3038 3038 3039 3038 3037 3038 3039 3039 3038 3037 3037 3036 3036 3035 3034 3033 3033 3032
3076 3071 3067 3064 3060 3057 3055 3051 3047 3043 3039 3034 3031 3028 3024 3022 3021 3020 3021 3023 3024 3026 3026 3029 3030 3031 3032 3030 3031 3031 3031 3031 3030 3029 3027 3026 3026 3026 3024 3023 3022 3020 3018
3073 3069 3066 3063 3059 3056 3053 3049 3045 3042 3039 3035 3031 3028 3026 3024 3021 3021 3021 3021 3021 3021 3021 3022 3023 3022 3023 3023 3023 3023 3023 3022 3021 3020 3019 3018 3016 3014 3013 3012 3010 3008 3006
3071 3067 3064 3060 3057 3054 3051 3048 3044 3040 3037 3034 3031 3028 3026 3023 3021 3021 3020 3020 3019 3019 3018 3019 3019 3019 3018 3017 3017 3016 3015 3014 3012 3012 3010 3009 3007 3005 3004 3002 3001 2998 2996
3068 3065 3061 3058 3055 3052 3049 3046 3042 3039 3036 3033 3030 3027 3024 3023 3021 3019 3017 3016 3016 3016 3015 3014 3013 3013 3012 3011 3010 3010 3009 3007 3006 3004 3003 3002 3000 2998 2996 2993 2991 2990 2987
3064 3061 3058 3055 3052 3050 3047 3044 3040 3037 3034 3031 3028 3025 3023 3020 3018 3017 3015 3013 3012 3010 3008 3007 3006 3005 3004 3004 3003 3003 3001 3001 3000 2998 2996 2994 2992 2990 2989 2985 2982 2979 2976
3060 3057 3054 3051 3048 3046 3043 3040 3037 3034 3031 3028 3025 3022 3020 3017 3015 3013 3011 3009 3008 3006 3004 3003 3001 2999 2998 2997 2996 2996 2996 2994 2992 2991 2989 2986 2983 2981 2979 2976 2973 2970 2967
3054 3051 3049 3046 3044 3041 3038 3036 3033 3030 3027 3024 3021 3018 3015 3013 3011 3009 3007 3006 3003 3001 3000 2998 2997 2995 2994 2992 2990 2988 2987 2985 2984 2983 2980 2980 2976 2973 2971 2968 2965 2962 2958
3049 3046 3044 3041 3039 3036 3034 3030 3027 3025 3022 3019 3016 3013 3011 3008 3006 3004 3002 3000 2998 2996 2995 2993 2991 2989 2988 2986 2985 2983 2980 2977 2974 2973 2971 2970 2968 2965 2962 2959 2955 2952 2949
3042 3040 3038 3035 3033 3030 3027 3024 3022 3019 3017 3014 3012 3009 3006 3003 3001 2998 2996 2994 2993 2990 2988 2986 2984 2982 2980 2978 2977 2974 2972 2969 2966 2964 2963 2960 2959 2957 2954 2951 2947 2943 2940
3035 3032 3030 3027 3025 3023 3019 3017 3014 3012 3010 3007 3005 3002 3000 2997 2995 2992 2990 2988 2986 2984 2982 2980 2977 2974 2972 2970 2968 2966 2963 2961 2958 2956 2955 2952 2949 2947 2945 2943 2939 2935 2931